TimeEST,TemperatureF,Dew PointF,Humidity,Sea Level PressureIn,VisibilityMPH,Wind Direction,Wind SpeedMPH,Gust SpeedMPH,PrecipitationIn,Events,Conditions,WindDirDegrees,DateUTC
12:53 AM,66.0,64.9,96,30.12,2.0,North,9.2,-,N/A,,Overcast,10,2012-11-15 05:53:00
1:53 AM,64.9,64.0,97,30.11,2.0,North,8.1,-,N/A,,Overcast,360,2012-11-15 06:53:00
2:15 AM,64.4,64.4,100,30.10,1.0,NNE,5.8,-,N/A,,Overcast,20,2012-11-15 07:15:00
2:53 AM,64.9,64.0,97,30.09,1.0,NNE,6.9,-,N/A,,Overcast,20,2012-11-15 07:53:00
3:53 AM,64.9,64.0,97,30.09,1.0,NNW,3.5,-,N/A,,Overcast,340,2012-11-15 08:53:00
4:53 AM,64.9,64.0,97,30.09,1.0,NNW,5.8,-,N/A,Fog,Patches of Fog,340,2012-11-15 09:53:00
5:53 AM,64.9,64.0,97,30.11,1.0,NNW,6.9,-,N/A,,Overcast,330,2012-11-15 10:53:00
6:53 AM,64.0,63.0,96,30.12,1.0,NNW,6.9,-,N/A,,Overcast,340,2012-11-15 11:53:00
7:53 AM,64.0,63.0,96,30.13,1.0,NNW,6.9,-,N/A,,Overcast,340,2012-11-15 12:53:00
8:26 AM,64.4,62.6,94,30.14,1.0,NNW,6.9,-,N/A,,Overcast,330,2012-11-15 13:26:00
8:53 AM,64.0,63.0,96,30.15,1.0,NW,6.9,-,N/A,,Overcast,320,2012-11-15 13:53:00
9:15 AM,64.4,62.6,94,30.16,2.5,NW,6.9,-,N/A,,Overcast,310,2012-11-15 14:15:00
9:47 AM,64.4,62.6,94,30.17,1.0,NW,6.9,-,N/A,,Overcast,320,2012-11-15 14:47:00
9:53 AM,64.9,63.0,93,30.17,1.0,NNW,5.8,-,N/A,,Overcast,330,2012-11-15 14:53:00
10:53 AM,66.0,63.0,90,30.16,6.0,NNW,5.8,-,N/A,,Overcast,330,2012-11-15 15:53:00
11:53 AM,66.0,63.0,90,30.14,10.0,North,6.9,-,N/A,,Overcast,10,2012-11-15 16:53:00
12:53 PM,66.0,63.0,90,30.12,10.0,Variable,5.8,-,N/A,,Overcast,0,2012-11-15 17:53:00
1:53 PM,66.0,63.0,90,30.11,10.0,North,8.1,-,N/A,,Overcast,350,2012-11-15 18:53:00
2:53 PM,64.9,62.1,90,30.10,7.0,North,10.4,-,N/A,,Overcast,10,2012-11-15 19:53:00
3:33 PM,62.6,60.8,94,30.11,2.0,North,10.4,-,N/A,,Overcast,10,2012-11-15 20:33:00
3:53 PM,63.0,60.1,90,30.12,2.0,NNE,10.4,-,N/A,,Overcast,20,2012-11-15 20:53:00
4:06 PM,62.6,60.8,94,30.12,2.0,NNE,8.1,-,N/A,,Overcast,20,2012-11-15 21:06:00
4:17 PM,62.6,60.8,94,30.12,6.0,NNE,10.4,-,N/A,,Overcast,20,2012-11-15 21:17:00
4:53 PM,63.0,59.0,87,30.12,10.0,NNE,8.1,-,N/A,,Overcast,30,2012-11-15 21:53:00
5:53 PM,62.1,59.0,90,30.13,8.0,NNE,5.8,-,N/A,,Overcast,20,2012-11-15 22:53:00
6:53 PM,62.1,57.9,86,30.13,10.0,NNE,12.7,-,N/A,,Overcast,20,2012-11-15 23:53:00
7:32 PM,60.8,57.2,88,30.15,10.0,North,4.6,-,N/A,,Overcast,350,2012-11-16 00:32:00
7:39 PM,62.6,57.2,82,30.14,10.0,NNW,5.8,-,N/A,,Overcast,340,2012-11-16 00:39:00
7:53 PM,62.1,57.9,86,30.14,10.0,North,6.9,-,N/A,,Overcast,360,2012-11-16 00:53:00
8:11 PM,62.6,57.2,82,30.15,10.0,North,5.8,-,N/A,,Overcast,360,2012-11-16 01:11:00
8:53 PM,62.1,57.9,86,30.15,10.0,North,10.4,-,N/A,,Overcast,360,2012-11-16 01:53:00
9:21 PM,60.8,57.2,88,30.15,10.0,North,8.1,-,N/A,,Scattered Clouds,350,2012-11-16 02:21:00
9:53 PM,60.1,57.9,93,30.15,10.0,NNW,8.1,-,N/A,,Partly Cloudy,340,2012-11-16 02:53:00
10:21 PM,60.8,57.2,88,30.16,10.0,North,11.5,-,N/A,,Mostly Cloudy,350,2012-11-16 03:21:00
10:53 PM,60.1,57.9,93,30.15,10.0,North,10.4,-,N/A,,Overcast,360,2012-11-16 03:53:00
11:53 PM,60.1,57.9,93,30.15,10.0,North,6.9,-,N/A,,Overcast,350,2012-11-16 04:53:00